Weather in Baraba

Russia / Sverdlovsk Oblast     56°44′59″N   61°45′51″E
temp.,
°C
wind,
m/s
gust,
m/s
humid.,
%
clouds,
%
prec.,
mm/h
press.,
hPa
HPBL,
m
18 january, mon
mon1823:00−15w6148670 0.0 1007516
02:00−17w6138869 0.0 1010425
05:00−18wnw6148935 0.0 1013367
08:00−19wnw613880 0.0 1015268
11:00−19wnw611880 0.0 1017251
14:00−16w58890 0.0 1018253
17:00−19w49910 0.0 1020168
20:00−20wnw49900 0.0 1020178
19 january, tue
tue1923:00−21w47890 0.0 1021115
02:00−21wnw34880 0.0 102159
05:00−22wnw228726 0.0 102220
08:00−21wsw118574 0.0 102220
11:00−19sse118587 0.0 102323
14:00−17sse2486100 0.0 1022157
17:00−18se3490100 0.0 102289
20:00−17se3790100 0.0 1021218
20 january, wed
wed2023:00−17se3792100 0.0 1020257
02:00−17ese3793100 0.0 1019287
05:00−16ese3793100 0.0 1017310
08:00−16ese3794100 0.1 1015393
11:00−16ese3795100 0.7 1014447
14:00−15ese2495100 1.4 1011390
17:00−15s2397100 2.4 101099
20:00−16sw2497100 0.4 1009117
21 january, thu
thu2123:00−15wsw3796100 0.9 1008325
02:00−15w61292100 0.5 1008596
05:00−16w71392100 0.9 1008608
08:00−17w71488100 0.1 1009609
11:00−17wnw6138899 0.2 1011581
14:00−16wnw61289100 0.0 1012560
17:00−18w5129097 0.0 1013417
20:00−18w6148957 0.0 1014391
22 january, fri
fri2223:00−18w6148860 0.0 1014368
02:00−18w5128988 0.0 1014403
05:00−17wsw489694 0.1 1012345
08:00−16sw4796100 0.9 1010402
11:00−14ssw4895100 2.3 1007443
14:00−13w4694100 1.6 1005597
17:00−15wnw4892100 1.8 1006435
20:00−20n6895100 0.1 1009285